YAHSAT 1B 1 38245U 12016A 21060.94772154 .00000119 00000-0 00000+0 0 9990 2 38245 0.0048 159.4285 0001835 191.1542 198.1303 1.00272853 32536 BREEZE-M DEB [TANK] 1 38246U 12016B 21060.32302621 .00000796 00000-0 19211-3 0 9990 2 38246 49.5759 87.4831 5090060 65.2875 338.7544 5.44232372174499 BREEZE-M R/B 1 38247U 12016C 21059.58863488 -.00000021 00000-0 00000-0 0 9995 2 38247 24.1507 264.3839 6181147 42.2249 351.6935 2.19987272 71132